Port Aransas, TX

3:01 AM CDT on October 21, 2017 (GMT -0500)
Port Aransas

Weather History for KRAS - January, 2013

Change the Weather History Date:

Saturday, January 19, 2013

  Actual Average (KNGP) Record (KNGP)
Temperature  
Mean Temperature 57 °F -  
Max Temperature 64 °F 65 °F 71 °F (2016)
Min Temperature 50 °F 50 °F 48 °F (2015)
Degree Days  
Heating Degree Days 8    
Growing Degree Days 7 (Base 50)    
Moisture  
Dew Point 51 °F    
Average Humidity 80    
Maximum Humidity 100    
Minimum Humidity 59    
Precipitation  
Precipitation 0.00 in - - ()
Sea Level Pressure  
Sea Level Pressure 30.24 in    
Wind  
Wind Speed 5 mph (ESE)    
Max Wind Speed 12 mph    
Max Gust Speed -    
Visibility 10 miles    
Events      
Averages and records for this station are not official NWS values.
T = Trace of Precipitation, MM = Missing Value Source: NWS Daily Summary

Daily Weather History Graph

Daily Weather History Graph

Search for Another Location

Airport or City:

Trip Planner

Search our weather history database for the weather conditions in past years. The results will help you decide how hot, cold, wet, or windy it might be!

Date:

Astronomy

Jan. 19, 2013 Rise Set
Actual Time 7:19 AM CST 5:58 PM CST
Civil Twilight 6:54 AM CST 6:23 PM CST
Nautical Twilight 6:26 AM CST 6:52 PM CST
Astronomical Twilight 5:58 AM CST 7:20 PM CST
Moon 12:20 PM CST (1/19) 1:02 AM CST (1/19)
Length of Visible Light 11h 28m
Length of Day
10h 38m
First Quarter, 57% of the Moon is Illuminated
Jan 19
First Quarter
Jan 26
Full
Feb 3
Last Quarter
Feb 10
New
Feb 17
First Quarter

Hourly Weather History & Observations

Time (CST) Temp. Dew Point Humidity Pressure Visibility Wind Dir Wind Speed Gust Speed Precip Events Conditions
12:15 AM 50.0 °F 48.2 °F 94% 30.32 in 10.0 mi NE 3.5 mph - N/A   Mostly Cloudy
12:35 AM 50.0 °F 48.2 °F 94% 30.32 in 10.0 mi Calm Calm - N/A   Scattered Clouds
12:55 AM 50.0 °F 48.2 °F 94% 30.32 in 10.0 mi NE 3.5 mph - N/A   Clear
1:15 AM 50.0 °F 50.0 °F 100% 30.31 in 10.0 mi ENE 3.5 mph - N/A   Clear
1:35 AM 50.0 °F 48.2 °F 94% 30.30 in 10.0 mi ENE 4.6 mph - N/A   Clear
1:55 AM 51.8 °F 48.2 °F 88% 30.30 in 10.0 mi ENE 3.5 mph - N/A   Clear
2:15 AM 51.8 °F 48.2 °F 88% 30.29 in 10.0 mi ENE 3.5 mph - N/A   Clear
2:35 AM 51.8 °F 50.0 °F 94% 30.28 in 10.0 mi ENE 5.8 mph - N/A   Clear
2:55 AM 51.8 °F 50.0 °F 94% 30.27 in 10.0 mi ENE 3.5 mph - N/A   Clear
3:15 AM 51.8 °F 50.0 °F 94% 30.27 in 10.0 mi ENE 6.9 mph - N/A   Clear
3:35 AM 53.6 °F 50.0 °F 88% 30.27 in 10.0 mi East 5.8 mph - N/A   Clear
3:55 AM 53.6 °F 50.0 °F 88% 30.27 in 10.0 mi East 5.8 mph - N/A   Clear
4:15 AM 53.6 °F 50.0 °F 88% 30.27 in 10.0 mi East 4.6 mph - N/A   Clear
4:35 AM 53.6 °F 50.0 °F 88% 30.26 in 10.0 mi East 5.8 mph - N/A   Clear
4:55 AM 51.8 °F 50.0 °F 94% 30.26 in 10.0 mi East 6.9 mph - N/A   Clear
5:15 AM 53.6 °F 50.0 °F 88% 30.25 in 10.0 mi East 8.1 mph - N/A   Clear
5:35 AM 53.6 °F 50.0 °F 88% 30.26 in 10.0 mi East 6.9 mph - N/A   Clear
6:35 AM 53.6 °F 50.0 °F 88% 30.27 in 10.0 mi East 5.8 mph - N/A   Clear
7:15 AM 51.8 °F 50.0 °F 94% 30.27 in 10.0 mi East 5.8 mph - N/A   Scattered Clouds
7:55 AM 53.6 °F 50.0 °F 88% 30.28 in 10.0 mi East 5.8 mph - N/A   Scattered Clouds
8:15 AM 55.4 °F 51.8 °F 88% 30.29 in 10.0 mi East 4.6 mph - N/A   Scattered Clouds
8:35 AM 57.2 °F 51.8 °F 82% 30.29 in 10.0 mi East 5.8 mph - N/A   Clear
9:35 AM 60.8 °F 51.8 °F 72% 30.31 in 10.0 mi East 8.1 mph - N/A   Clear
9:55 AM 60.8 °F 51.8 °F 72% 30.31 in 10.0 mi East 9.2 mph - N/A   Clear
10:15 AM 60.8 °F 51.8 °F 72% 30.32 in 10.0 mi ESE 9.2 mph - N/A   Clear
10:35 AM 60.8 °F 50.0 °F 68% 30.31 in 10.0 mi East 9.2 mph - N/A   Scattered Clouds
11:15 AM 62.6 °F 51.8 °F 68% 30.30 in 10.0 mi ESE 11.5 mph - N/A   Clear
11:35 AM 64.4 °F 51.8 °F 64% 30.29 in 10.0 mi ESE 10.4 mph - N/A   Clear
11:55 AM 62.6 °F 51.8 °F 68% 30.28 in 10.0 mi ESE 11.5 mph - N/A   Clear
12:15 PM 64.4 °F 51.8 °F 64% 30.27 in 10.0 mi SE 6.9 mph - N/A   Clear
12:35 PM 64.4 °F 50.0 °F 59% 30.26 in 10.0 mi SE 5.8 mph - N/A   Clear
12:55 PM 64.4 °F 50.0 °F 59% 30.24 in 10.0 mi SE 5.8 mph - N/A   Clear
1:15 PM 64.4 °F 51.8 °F 64% 30.23 in 10.0 mi SE 5.8 mph - N/A   Clear
1:35 PM 64.4 °F 51.8 °F 64% 30.22 in 10.0 mi SSE 5.8 mph - N/A   Clear
1:55 PM 64.4 °F 51.8 °F 64% 30.21 in 10.0 mi South 4.6 mph - N/A   Clear
2:15 PM 64.4 °F 50.0 °F 59% 30.20 in 10.0 mi South 4.6 mph - N/A   Clear
2:35 PM 64.4 °F 50.0 °F 59% 30.19 in 10.0 mi SSE 5.8 mph - N/A   Clear
2:55 PM 64.4 °F 50.0 °F 59% 30.19 in 10.0 mi SSE 5.8 mph - N/A   Clear
3:15 PM 64.4 °F 50.0 °F 59% 30.19 in 10.0 mi SSE 4.6 mph - N/A   Clear
3:35 PM 64.4 °F 50.0 °F 59% 30.19 in 10.0 mi SE 5.8 mph - N/A   Clear
3:55 PM 64.4 °F 50.0 °F 59% 30.19 in 10.0 mi SE 4.6 mph - N/A   Clear
4:15 PM 64.4 °F 50.0 °F 59% 30.18 in 10.0 mi SE 5.8 mph - N/A   Clear
4:35 PM 62.6 °F 50.0 °F 63% 30.18 in 10.0 mi ESE 5.8 mph - N/A   Clear
4:55 PM 62.6 °F 50.0 °F 63% 30.17 in 10.0 mi ESE 5.8 mph - N/A   Clear
5:15 PM 60.8 °F 50.0 °F 68% 30.17 in 10.0 mi ESE 4.6 mph - N/A   Clear
5:35 PM 60.8 °F 51.8 °F 72% 30.17 in 10.0 mi ESE 5.8 mph - N/A   Clear
5:55 PM 59.0 °F 51.8 °F 77% 30.18 in 10.0 mi ESE 4.6 mph - N/A   Clear
6:15 PM 57.2 °F 51.8 °F 82% 30.18 in 10.0 mi East 4.6 mph - N/A   Clear
6:35 PM 55.4 °F 51.8 °F 88% 30.19 in 10.0 mi East 5.8 mph - N/A   Clear
6:55 PM 55.4 °F 51.8 °F 88% 30.19 in 10.0 mi ESE 5.8 mph - N/A   Clear
7:15 PM 55.4 °F 51.8 °F 88% 30.19 in 10.0 mi ESE 5.8 mph - N/A   Clear
7:35 PM 55.4 °F 51.8 °F 88% 30.19 in 10.0 mi SE 9.2 mph - N/A   Clear
7:55 PM 59.0 °F 51.8 °F 77% 30.19 in 10.0 mi ESE 8.1 mph - N/A   Clear
8:15 PM 55.4 °F 51.8 °F 88% 30.21 in 10.0 mi NE 3.5 mph - N/A   Clear
8:35 PM 55.4 °F 51.8 °F 88% 30.22 in 10.0 mi East 4.6 mph - N/A   Clear
8:55 PM 55.4 °F 51.8 °F 88% 30.22 in 10.0 mi East 4.6 mph - N/A   Clear
9:15 PM 55.4 °F 51.8 °F 88% 30.23 in 10.0 mi ESE 4.6 mph - N/A   Clear
9:35 PM 55.4 °F 51.8 °F 88% 30.24 in 10.0 mi SE 4.6 mph - N/A   Clear
9:55 PM 55.4 °F 51.8 °F 88% 30.23 in 10.0 mi SE 3.5 mph - N/A   Clear
10:15 PM 55.4 °F 51.8 °F 88% 30.24 in 10.0 mi SE 4.6 mph - N/A   Clear
10:35 PM 55.4 °F 51.8 °F 88% 30.23 in 10.0 mi SE 3.5 mph - N/A   Clear
10:55 PM 55.4 °F 51.8 °F 88% 30.23 in 10.0 mi SE 3.5 mph - N/A   Clear
11:15 PM 55.4 °F 51.8 °F 88% 30.23 in 10.0 mi SE 3.5 mph - N/A   Clear
11:35 PM 55.4 °F 50.0 °F 82% 30.22 in 10.0 mi SE 3.5 mph - N/A   Clear
11:55 PM 55.4 °F 51.8 °F 88% 30.22 in 10.0 mi SE 3.5 mph - N/A   Clear